Location: Unspecified
(0.0000°N, 0.0000°E)
Time: 14:23:08
(UTC+00:00)

STARLINK-33891 - Visible Passes

Search period start: 15 June 2025 00:00
Search period end: 25 June 2025 00:00
Orbit: 480 x 482 km, 43.0° (Epoch: 15 June)

Date Brightness Start Highest point End Pass type
(mag) Time Alt. Az. Time Alt. Az. Time Alt. Az.
21 Jun 5.1 19:54:42 10° SW 19:56:40 28° WSW 19:56:40 28° WSW visible
22 Jun 4.1 19:32:54 10° WSW 19:36:34 51° NW 19:39:03 19° NNE visible
23 Jun 4.5 19:12:00 10° WSW 19:15:36 44° NW 19:19:15 10° NNE visible
24 Jun 6.8 05:24:07 10° NNE 05:26:10 13° NE 05:28:12 10° ENE visible
24 Jun 5.0 18:52:00 10° WSW 18:55:31 37° NW 18:59:03 10° NNE visible
